DW0775 Weather Reports


Display with metric or nautical units.
time (UTC)temp
F
wind
direction
speed
MPH
gust
MPH
rain 1hr
in
rain 24hr
in
rain mn
in
humidity
%
barometer
mb
20180525052344 68 205 4.0 6.0 0.00 0.00 0.00 70 1016.9
20180525051838 68 205 3.0 6.0 0.00 0.00 0.00 69 1016.9
20180525051335 68 205 4.0 6.0 0.00 0.00 0.00 69 1016.9
20180525050831 68 205 4.0 5.0 0.00 0.00 0.00 69 1016.7
20180525050347 68 205 3.0 4.0 0.00 0.00 0.00 69 1016.7
20180525045843 68 205 3.0 4.0 0.00 0.00 0.00 69 1016.7
20180525045340 69 205 3.0 5.0 0.00 0.00 0.00 68 1016.8
20180525044834 69 205 4.0 5.0 0.00 0.00 0.00 68 1016.7
20180525044331 68 205 4.0 5.0 0.00 0.00 0.00 68 1016.8
20180525043845 69 205 2.0 3.0 0.00 0.00 0.00 68 1016.8
20180525043339 69 205 2.0 4.0 0.00 0.00 0.00 68 1016.9
20180525042834 69 205 3.0 4.0 0.00 0.00 0.00 68 1016.9
20180525042332 69 205 3.0 5.0 0.00 0.00 0.00 68 1016.9
20180525041826 70 205 2.0 5.0 0.00 0.00 0.00 67 1016.9
20180525041345 70 205 4.0 6.0 0.00 0.00 0.00 66 1017.0
20180525040842 70 205 4.0 6.0 0.00 0.00 0.00 66 1017.0
20180525040342 70 205 3.0 5.0 0.00 0.00 0.00 66 1017.1
20180525035835 70 205 4.0 6.0 0.00 0.00 0.00 65 1017.0
20180525035333 70 205 3.0 6.0 0.00 0.00 0.00 66 1017.1
20180525034829 70 205 4.0 5.0 0.00 0.00 0.00 66 1017.1
20180525034345 70 205 3.0 4.0 0.00 0.00 0.00 66 1017.0
20180525033842 70 205 2.0 4.0 0.00 0.00 0.00 65 1017.0
20180525033337 71 205 2.0 5.0 0.00 0.00 0.00 65 1017.1
20180525032832 71 205 4.0 5.0 0.00 0.00 0.00 64 1017.1
20180525032330 72 205 2.0 3.0 0.00 0.00 0.00 63 1017.1
20180525031842 72 205 1.0 4.0 0.00 0.00 0.00 63 1017.1
20180525031338 72 205 3.0 4.0 0.00 0.00 0.00 61 1017.1
20180525030833 72 205 2.0 4.0 0.00 0.00 0.00 61 1017.3
20180525030328 72 205 2.0 4.0 0.00 0.00 0.00 61 1017.2
20180525025842 72 205 3.0 4.0 0.00 0.00 0.00 62 1017.3
20180525025340 72 205 2.0 5.0 0.00 0.00 0.00 62 1017.1
20180525024834 72 205 2.0 6.0 0.00 0.00 0.00 62 1017.1
20180525024336 72 205 4.0 6.0 0.00 0.00 0.00 62 1017.1
20180525023832 72 205 3.0 5.0 0.00 0.00 0.00 62 1017.1
20180525023326 73 205 2.0 5.0 0.00 0.00 0.00 63 1017.2
20180525022845 73 205 2.0 7.0 0.00 0.00 0.00 61 1017.1
20180525022341 74 205 5.0 7.0 0.00 0.00 0.00 60 1017.1
20180525021834 74 205 4.0 8.0 0.00 0.00 0.00 59 1017.1
20180525021330 74 205 6.0 8.0 0.00 0.00 0.00 59 1017.0
20180525020826 74 205 4.0 6.0 0.00 0.00 0.00 59 1017.0
20180525020345 74 205 5.0 6.0 0.00 0.00 0.00 58 1017.0
20180525015840 75 205 4.0 6.0 0.00 0.00 0.00 58 1017.1
20180525015335 75 205 4.0 5.0 0.00 0.00 0.00 58 1017.0
20180525014828 75 205 3.0 5.0 0.00 0.00 0.00 58 1017.0
20180525014345 75 205 3.0 5.0 0.00 0.00 0.00 58 1017.0
20180525013840 75 205 3.0 4.0 0.00 0.00 0.00 58 1017.0
20180525013336 75 205 3.0 4.0 0.00 0.00 0.00 59 1017.1
20180525012831 75 205 2.0 4.0 0.00 0.00 0.00 60 1017.1
20180525012333 76 205 1.0 4.0 0.00 0.00 0.00 59 1017.1
20180525011845 76 205 1.0 2.0 0.00 0.00 0.00 57 1017.1
20180525011342 76 205 1.0 5.0 0.00 0.00 0.00 56 1017.2
20180525010838 77 205 1.0 5.0 0.00 0.00 0.00 56 1017.2
20180525010334 77 205 2.0 4.0 0.00 0.00 0.00 53 1017.2
20180525005833 78 205 2.0 3.0 0.00 0.00 0.00 53 1017.2
20180525005330 78 205 0.0 3.0 0.00 0.00 0.00 52 1017.2
20180525004845 79 205 1.0 4.0 0.00 0.00 0.00 51 1017.3
20180525004342 79 205 2.0 5.0 0.00 0.00 0.00 50 1017.3
20180525003838 79 205 3.0 6.0 0.00 0.00 0.00 49 1017.3
20180525003334 79 205 4.0 6.0 0.00 0.00 0.00 49 1017.4
20180525002829 80 205 4.0 6.0 0.00 0.00 0.00 49 1017.5
20180525002346 80 205 3.0 6.0 0.00 0.00 0.00 48 1017.5
20180525001840 80 205 3.0 5.0 0.00 0.00 0.00 48 1017.5
20180525001337 80 205 4.0 6.0 0.00 0.00 0.00 47 1017.5
20180525000831 80 205 3.0 7.0 0.00 0.00 0.00 47 1017.5
20180525000330 81 205 5.0 7.0 0.00 0.00 0.00 47 1017.5
20180524235846 81 205 5.0 7.0 0.00 0.00 0.00 47 1017.5
20180524235343 81 204 5.0 9.0 0.00 0.00 0.00 46 1017.5
20180524234837 81 205 5.0 9.0 0.00 0.00 0.00 46 1017.6
20180524234333 81 205 3.0 9.0 0.00 0.00 0.00 46 1017.6
20180524233848 81 205 3.0 10.0 0.00 0.00 0.00 46 1017.7
20180524233343 81 205 4.0 10.0 0.00 0.00 0.00 45 1017.7
20180524232838 82 202 5.0 10.0 0.00 0.00 0.00 45 1017.7
20180524232336 82 204 4.0 10.0 0.00 0.00 0.00 44 1017.7
20180524231829 82 203 6.0 11.0 0.00 0.00 0.00 43 1017.8
20180524231346 82 203 6.0 11.0 0.00 0.00 0.00 42 1017.8
20180524230843 82 200 5.0 9.0 0.00 0.00 0.00 43 1017.8
20180524230338 82 200 5.0 12.0 0.00 0.00 0.00 43 1017.9
20180524225834 82 196 7.0 12.0 0.00 0.00 0.00 42 1017.9
20180524225332 82 194 6.0 11.0 0.00 0.00 0.00 42 1017.9
20180524224846 82 204 4.0 11.0 0.00 0.00 0.00 41 1018.0
20180524224342 82 205 5.0 11.0 0.00 0.00 0.00 42 1018.1
20180524223843 83 226 5.0 10.0 0.00 0.00 0.00 41 1018.1
20180524223340 83 225 4.0 10.0 0.00 0.00 0.00 42 1018.2
20180524222835 83 194 6.0 10.0 0.00 0.00 0.00 41 1018.2
20180524222330 83 198 4.0 11.0 0.00 0.00 0.00 40 1018.5
20180524221843 83 198 4.0 11.0 0.00 0.00 0.00 40 1018.5
20180524221340 83 221 7.0 10.0 0.00 0.00 0.00 40 1018.5
20180524220836 83 212 4.0 7.0 0.00 0.00 0.00 41 1018.5
20180524220331 83 212 4.0 7.0 0.00 0.00 0.00 40 1018.6
20180524215847 83 212 5.0 12.0 0.00 0.00 0.00 40 1018.6
20180524215343 83 211 7.0 12.0 0.00 0.00 0.00 39 1018.8
20180524214833 83 202 8.0 12.0 0.00 0.00 0.00 37 1018.8
20180524214331 83 216 4.0 7.0 0.00 0.00 0.00 39 1018.9
20180524213847 83 216 2.0 9.0 0.00 0.00 0.00 40 1018.9
20180524213343 83 223 5.0 11.0 0.00 0.00 0.00 38 1019.1
20180524212837 83 223 5.0 11.0 0.00 0.00 0.00 38 1019.2
20180524212334 83 195 3.0 9.0 0.00 0.00 0.00 38 1019.2
20180524211834 84 195 6.0 9.0 0.00 0.00 0.00 37 1019.2
20180524211331 84 200 4.0 9.0 0.00 0.00 0.00 38 1019.2
20180524210846 84 234 5.0 10.0 0.00 0.00 0.00 37 1019.3
20180524210340 84 239 3.0 11.0 0.00 0.00 0.00 37 1019.4
20180524205836 84 268 4.0 11.0 0.00 0.00 0.00 37 1019.4
20180524205336 83 218 4.0 10.0 0.00 0.00 0.00 39 1019.4
20180524204829 83 226 5.0 9.0 0.00 0.00 0.00 40 1019.5
20180524204346 83 225 4.0 9.0 0.00 0.00 0.00 39 1019.5
20180524203841 83 226 3.0 11.0 0.00 0.00 0.00 40 1019.5
20180524203338 83 225 6.0 12.0 0.00 0.00 0.00 40 1019.6
20180524202833 83 212 2.0 12.0 0.00 0.00 0.00 39 1019.6
20180524202331 83 218 5.0 12.0 0.00 0.00 0.00 39 1019.7
20180524201844 83 221 7.0 12.0 0.00 0.00 0.00 38 1019.7
20180524201341 83 216 6.0 10.0 0.00 0.00 0.00 37 1019.8
20180524200838 83 234 1.0 11.0 0.00 0.00 0.00 38 1019.9
20180524200332 82 234 4.0 16.0 0.00 0.00 0.00 38 1020.1
20180524195830 83 233 5.0 16.0 0.00 0.00 0.00 39 1020.1
20180524195347 83 216 6.0 12.0 0.00 0.00 0.00 38 1020.1
20180524194840 83 222 3.0 10.0 0.00 0.00 0.00 39 1020.1
20180524194337 83 213 5.0 11.0 0.00 0.00 0.00 37 1020.2
20180524193831 83 209 7.0 12.0 0.00 0.00 0.00 37 1020.4
20180524193346 83 219 6.0 12.0 0.00 0.00 0.00 38 1020.4
20180524192842 82 203 1.0 11.0 0.00 0.00 0.00 39 1020.4
20180524192341 82 232 0.0 13.0 0.00 0.00 0.00 38 1020.4
20180524191835 82 232 1.0 13.0 0.00 0.00 0.00 39 1020.6
20180524191331 82 196 2.0 14.0 0.00 0.00 0.00 39 1020.7
20180524190847 82 222 5.0 14.0 0.00 0.00 0.00 38 1020.7
20180524190343 82 222 4.0 14.0 0.00 0.00 0.00 39 1020.8
20180524185838 82 242 5.0 13.0 0.00 0.00 0.00 40 1020.8
20180524185335 82 216 5.0 13.0 0.00 0.00 0.00 40 1020.8
20180524184828 82 215 2.0 9.0 0.00 0.00 0.00 42 1020.8
20180524184346 81 215 3.0 18.0 0.00 0.00 0.00 40 1020.9
20180524183841 81 199 2.0 18.0 0.00 0.00 0.00 42 1020.9
20180524183341 81 208 3.0 14.0 0.00 0.00 0.00 42 1020.9
20180524182836 81 201 8.0 14.0 0.00 0.00 0.00 42 1021.0
20180524182333 81 203 4.0 14.0 0.00 0.00 0.00 43 1021.1
20180524181847 81 212 2.0 11.0 0.00 0.00 0.00 44 1021.3
20180524181345 80 213 1.0 13.0 0.00 0.00 0.00 44 1021.3
20180524180840 80 218 5.0 10.0 0.00 0.00 0.00 42 1021.4
20180524180336 81 210 1.0 10.0 0.00 0.00 0.00 42 1021.4
20180524175831 80 210 0.0 10.0 0.00 0.00 0.00 43 1021.5
20180524175348 80 205 2.0 15.0 0.00 0.00 0.00 43 1021.4
20180524174841 80 210 3.0 15.0 0.00 0.00 0.00 44 1021.5
20180524174339 80 202 1.0 12.0 0.00 0.00 0.00 44 1021.6
20180524173835 80 198 6.0 12.0 0.00 0.00 0.00 42 1021.7
20180524173330 80 200 0.0 9.0 0.00 0.00 0.00 43 1021.7
20180524172845 80 196 0.0 9.0 0.00 0.00 0.00 44 1021.7
20180524172343 80 217 4.0 11.0 0.00 0.00 0.00 43 1021.8
20180524171835 80 204 5.0 11.0 0.00 0.00 0.00 44 1021.7
20180524171334 80 205 0.0 14.0 0.00 0.00 0.00 45 1021.8
20180524170830 79 194 9.0 14.0 0.00 0.00 0.00 45 1021.9
20180524170345 79 211 6.0 15.0 0.00 0.00 0.00 45 1022.0
20180524165839 80 202 5.0 15.0 0.00 0.00 0.00 45 1022.0
20180524165336 79 229 6.0 14.0 0.00 0.00 0.00 45 1022.0
20180524164827 79 205 5.0 14.0 0.00 0.00 0.00 44 1022.0
20180524164343 79 236 4.0 12.0 0.00 0.00 0.00 45 1022.2
20180524163839 79 234 6.0 12.0 0.00 0.00 0.00 45 1022.2
20180524163335 79 221 5.0 14.0 0.00 0.00 0.00 47 1022.3
20180524162830 79 201 7.0 14.0 0.00 0.00 0.00 45 1022.3
20180524162347 78 225 1.0 9.0 0.00 0.00 0.00 48 1022.4
20180524161841 78 227 4.0 10.0 0.00 0.00 0.00 50 1022.4
20180524161336 78 225 0.0 10.0 0.00 0.00 0.00 49 1022.5
20180524160832 78 225 5.0 11.0 0.00 0.00 0.00 50 1022.6
20180524160345 77 219 6.0 12.0 0.00 0.00 0.00 49 1022.6
20180524155844 77 213 1.0 12.0 0.00 0.00 0.00 51 1022.5
20180524155341 77 222 1.0 11.0 0.00 0.00 0.00 49 1022.7
20180524154839 77 227 4.0 12.0 0.00 0.00 0.00 50 1022.8
20180524154336 77 217 4.0 13.0 0.00 0.00 0.00 49 1022.9
20180524153831 76 242 5.0 13.0 0.00 0.00 0.00 50 1022.9
20180524153346 76 232 2.0 10.0 0.00 0.00 0.00 53 1022.9
20180524152840 76 229 2.0 11.0 0.00 0.00 0.00 55 1022.9
20180524152338 75 231 1.0 11.0 0.00 0.00 0.00 53 1023.0
20180524151832 75 228 0.0 8.0 0.00 0.00 0.00 55 1023.1
20180524151330 75 228 3.0 10.0 0.00 0.00 0.00 54 1023.0
20180524150846 74 227 5.0 10.0 0.00 0.00 0.00 54 1023.1
20180524150342 74 219 5.0 9.0 0.00 0.00 0.00 56 1023.0
20180524145838 74 230 3.0 9.0 0.00 0.00 0.00 56 1023.1
20180524145334 73 227 3.0 8.0 0.00 0.00 0.00 56 1023.2
20180524144847 73 228 2.0 8.0 0.00 0.00 0.00 56 1023.3
20180524144343 73 228 6.0 8.0 0.00 0.00 0.00 57 1023.2
20180524143842 72 224 4.0 10.0 0.00 0.00 0.00 57 1023.2
20180524143338 72 225 5.0 10.0 0.00 0.00 0.00 57 1023.2
20180524142837 72 215 5.0 9.0 0.00 0.00 0.00 59 1023.2
20180524142334 71 215 4.0 7.0 0.00 0.00 0.00 60 1023.3
20180524141828 71 215 1.0 7.0 0.00 0.00 0.00 60 1023.3
20180524141343 70 215 1.0 7.0 0.00 0.00 0.00 60 1023.4
20180524140837 70 215 2.0 6.0 0.00 0.00 0.00 60 1023.3
20180524140332 70 215 2.0 6.0 0.00 0.00 0.00 61 1023.2
20180524135827 69 215 1.0 7.0 0.00 0.00 0.00 61 1023.2
20180524135345 69 215 1.0 7.0 0.00 0.00 0.00 61 1023.4
20180524134838 68 215 1.0 6.0 0.00 0.00 0.00 63 1023.3
20180524134336 68 215 1.0 6.0 0.00 0.00 0.00 65 1023.5
20180524133832 67 215 3.0 5.0 0.00 0.00 0.00 66 1023.5
20180524133347 67 215 1.0 4.0 0.00 0.00 0.00 68 1023.6
20180524132842 67 215 0.0 4.0 0.00 0.00 0.00 70 1023.5
20180524132340 66 215 0.0 5.0 0.00 0.00 0.00 71 1023.5
20180524131832 66 215 2.0 7.0 0.00 0.00 0.00 72 1023.6
20180524131329 65 215 0.0 6.0 0.00 0.00 0.00 74 1023.7
20180524130829 65 215 0.0 5.0 0.00 0.00 0.00 74 1023.6
20180524130345 64 215 4.0 7.0 0.00 0.00 0.00 76 1023.6
20180524125840 64 215 2.0 7.0 0.00 0.00 0.00 77 1023.5
20180524125338 63 215 3.0 6.0 0.00 0.00 0.00 79 1023.4
20180524124832 63 215 1.0 10.0 0.00 0.00 0.00 81 1023.5
20180524124347 62 215 1.0 10.0 0.00 0.00 0.00 81 1023.5
20180524123843 62 215 1.0 7.0 0.00 0.00 0.00 84 1023.6
20180524123339 62 215 3.0 6.0 0.00 0.00 0.00 85 1023.5
20180524122833 61 215 4.0 6.0 0.00 0.00 0.00 86 1023.4
20180524122332 61 215 3.0 6.0 0.00 0.00 0.00 87 1023.3
20180524121846 61 215 4.0 6.0 0.00 0.00 0.00 87 1023.4
20180524121342 61 215 1.0 3.0 0.00 0.00 0.00 88 1023.4
20180524120837 60 215 0.0 0.0 0.00 0.00 0.00 88 1023.4
20180524120329 60 215 0.0 0.0 0.00 0.00 0.00 89 1023.4
20180524115844 60 215 0.0 0.0 0.00 0.00 0.00 89 1023.3
20180524115341 59 215 0.0 0.0 0.00 0.00 0.00 90 1023.4
20180524114833 59 215 0.0 0.0 0.00 0.00 0.00 90 1023.4
20180524114334 58 215 0.0 0.0 0.00 0.00 0.00 90 1023.4
20180524113830 58 215 0.0 0.0 0.00 0.00 0.00 90 1023.4
20180524113343 58 215 0.0 0.0 0.00 0.00 0.00 91 1023.4
20180524112839 58 215 0.0 0.0 0.00 0.00 0.00 91 1023.4
20180524112337 57 215 0.0 0.0 0.00 0.00 0.00 91 1023.3
20180524111831 57 215 0.0 0.0 0.00 0.00 0.00 92 1023.1
20180524111329 57 215 0.0 0.0 0.00 0.00 0.00 92 1023.1
20180524110845 57 215 0.0 0.0 0.00 0.00 0.00 92 1023.2
20180524110340 56 215 0.0 0.0 0.00 0.00 0.00 91 1023.1
20180524105835 56 215 0.0 0.0 0.00 0.00 0.00 91 1023.0
20180524105333 56 215 0.0 0.0 0.00 0.00 0.00 91 1022.9
20180524104847 56 215 0.0 0.0 0.00 0.00 0.00 91 1022.7
20180524104345 56 215 0.0 0.0 0.00 0.00 0.00 91 1022.7
20180524103840 56 215 0.0 0.0 0.00 0.00 0.00 91 1022.6
20180524103336 56 215 0.0 0.0 0.00 0.00 0.00 91 1022.5
20180524102830 56 215 0.0 0.0 0.00 0.00 0.00 90 1022.5
20180524102330 56 215 0.0 0.0 0.00 0.00 0.00 90 1022.5
20180524101844 56 215 0.0 0.0 0.00 0.00 0.00 90 1022.5
20180524101344 56 215 0.0 0.0 0.00 0.00 0.00 89 1022.4
20180524100841 56 215 0.0 0.0 0.00 0.00 0.00 89 1022.4
20180524100335 56 215 0.0 0.0 0.00 0.00 0.00 89 1022.4
20180524095829 56 215 0.0 0.0 0.00 0.00 0.00 89 1022.3
20180524095346 56 215 0.0 0.0 0.00 0.00 0.00 88 1022.3
20180524094841 57 215 0.0 0.0 0.00 0.00 0.00 88 1022.3
20180524094339 57 215 0.0 0.0 0.00 0.00 0.00 88 1022.2
20180524093832 57 215 0.0 0.0 0.00 0.00 0.00 88 1022.2